EHI
0 0 1 2 2 3 3 3 1 0 0 0 1 2 2 1 0 0 0 0 0 0 0 0 0 0 0 0 0 0 0 0 0 0 0 0 0 0
1 1 1 1 2 3 3 2 1 0 0 0 0 1 1 0 0 0 0 0 0 0 0 0 0 0 0 0 0 0 0 0 0 0 0 0 0 0
2 2 2 2 2 2 1 1 1 0 0 0 0 0 0 0 0 0 0 0 0 0 0 0 0 0 0 0 0 0 0 0 0 0 0 0 0 0
1 2 1 1 2 1 0 0 0 0 0 0 0 0 0 0 0 0 0 0 0 0 0 0 0 0 0 0 0 0 0 0 0 0 0 0 0 0
0 0 0 0 0 0 0 0 0 0 0 0 0 0 0 0 0 0 0 0 0 0 0 0 0 0 0 0 0 0 0 0 0 0 0 0 0 0
0 0 0 0 0 0 0 0 0 0 0 0 0 0 0 0 0 0 0 0 0 0 0 0 0 0 0 0 0 0 0 0 0 0 0 0 0 0
0 0 0 0 0 0 0 0 0 0 0 0 0 0 0 0 0 0 0 0 0 0 0 0 0 0 0 0 0 0 0 0 0 0 0 0 0 0
0 0 0 0 0 0 0 0 0 0 0 0 0 0 0 0 0 0 0 0 0 0 0 0 0 0 0 0 0 0 0 0 0 0 0 0 0 0
0 0 0 0 0 0 0 0 0 0 0 0 0 0 0 0 0 0 0 0 0 0 0 0 0 0 0 0 0 0 0 0 0 0 0 0 0 0
0 0 0 0 0 0 0 0 0 0 0 0 0 0 0 0 0 0 0 0 0 0 0 0 0 0 0 0 0 0 0 0 0 0 0 0 0 0
0 0 0 0 0 0 0 0 0 0 0 0 0 0 0 0 0 0 0 0 0 0 0 0 0 0 0 0 0 0 0 0 0 0 0 0 0 0
0 0 0 0 0 0 0 0 0 0 0 0 0 0 0 0 0 0 0 0 0 0 0 0 0 0 0 0 0 0 0 0 0 0 0 0 0 0
0 0 0 0 0 0 0 0 0 0 0 0 0 0 0 0 0 0 0 0 0 0 0 0 0 0 0 0 0 0 0 0 0 0 0 0 0 0
0 0 0 0 0 0 0 0 0 0 0 0 0 0 0 0 0 0 0 0 0 0 0 0 0 0 0 0 0 0 0 0 0 0 0 0 0 0
0 0 0 0 0 0 0 0 0 0 0 0 0 0 0 0 0 0 0 0 0 0 0 0 0 0 0 0 0 0 0 0 0 0 0 0 0 0
0 0 0 0 0 0 0 0 0 0 0 0 0 0 0 0 0 0 0 0 0 0 0 0 0 0 0 0 0 0 0 0 0 0 0 0 0 0
0 0 0 0 0 0 0 0 0 0 0 0 0 0 0 0 0 0 0 0 0 0 0 0 0 0 0 0 0 0 0 0 0 0 0 0 0 0
0 0 0 0 0 0 0 0 0 0 0 0 0 0 0 0 0 0 0 0 0 0 0 0 0 0 0 0 0 0 0 0 0 0 0 0 0 0
0 0 0 0 0 0 0 0 0 0 0 0 0 0 0 0 0 0 0 0 0 0 0 0 0 0 0 0 0 0 0 0 0 0 0 0 0 0
0 0 0 0 0 0 0 0 0 0 0 0 0 0 0 0 0 0 0 0 0 0 0 0 0 0 0 0 0 0 0 0 0 0 0 0 0 0
0 0 0 0 0 0 0 0 0 0 0 0 0 0 0 0 0 0 0 0 0 0 0 0 0 0 0 0 0 0 0 0 0 0 0 0 0 0
0 0 0 0 0 0 0 0 0 0 0 0 0 0 0 0 0 0 0 0 0 0 0 0 0 0 0 0 0 0 0 0 0 0 0 0 0 0
0 0 0 0 0 0 0 0 0 0 0 0 0 0 0 0 0 0 0 0 0 0 0 0 0 0 0 0 0 0 0 0 0 0 0 0 0 0
Wind_Speed
2 3 2 2 2 3 3 3 3 2 3 3 2 2 2 3 3 3 4 5 6 6 7 7 6 7 7 7 8 8 8 8 8 8 8 9 9 9
2 2 3 2 2 2 3 3 3 3 3 3 3 2 3 3 3 4 4 5 5 6 6 6 6 7 7 7 7 8 8 8 8 9 9 9 9 9
2 3 3 2 2 2 2 3 3 3 4 3 2 2 2 3 2 2 3 3 3 5 6 6 6 7 7 7 8 8 8 8 8 8 9 10 10 10
3 3 3 2 3 2 2 3 3 4 4 4 3 2 3 3 2 2 2 2 3 4 5 6 6 6 7 7 7 8 8 8 8 8 9 9 9 10
3 3 4 3 3 2 3 3 3 3 3 3 3 2 2 1 1 1 2 1 2 3 4 5 5 6 6 6 7 7 8 8 8 9 9 9 9 9
3 3 3 3 3 3 3 3 3 3 2 3 2 2 1 1 1 1 1 1 2 2 2 2 3 5 5 6 7 7 8 8 8 9 9 9 9 9
2 2 2 2 3 3 2 3 3 2 2 2 1 1 1 1 1 1 2 1 2 1 1 2 2 2 3 4 6 7 7 8 8 8 9 9 9 10
2 2 2 2 1 2 3 3 4 4 4 3 2 2 3 2 1 1 1 1 2 1 1 2 2 2 3 3 4 5 6 6 7 7 8 9 9 9
2 2 1 1 1 1 1 1 2 4 5 5 4 4 4 3 3 2 2 2 3 2 1 2 2 3 3 3 4 5 5 5 5 6 6 7 8 8
2 2 2 1 1 1 0 0 1 2 3 4 4 4 4 3 3 3 3 2 2 2 2 2 2 3 3 3 3 4 5 5 5 5 6 7 7 8
1 1 1 1 1 1 2 1 1 2 1 1 2 2 2 2 3 2 1 1 2 2 1 2 2 3 3 3 3 4 5 5 6 6 6 6 6 6
1 1 1 1 1 2 2 2 1 2 1 1 1 1 1 1 2 3 3 2 1 2 2 2 2 1 2 2 2 3 3 4 5 5 6 6 5 4
1 1 1 2 2 2 2 2 2 2 1 1 1 1 0 0 1 2 2 3 3 3 2 2 2 1 2 2 2 2 2 2 2 3 4 5 5 4
2 2 2 2 1 1 1 1 1 1 1 0 0 1 1 1 1 2 2 3 3 4 3 2 2 2 2 2 3 2 2 2 2 2 2 3 4 5
1 2 2 1 1 1 1 1 1 0 1 0 1 1 1 2 1 1 1 1 2 2 2 3 3 2 2 3 3 2 3 3 2 2 2 3 3 2
1 1 1 1 0 0 0 0 0 1 1 1 1 1 1 1 1 1 1 1 1 2 2 2 3 3 2 3 3 3 3 2 2 3 3 3 3 3
0 1 1 1 1 1 1 1 0 0 1 1 1 1 1 1 1 1 1 1 1 2 2 2 2 2 3 3 3 3 3 3 3 3 3 3 3 3
2 0 0 1 1 2 1 1 1 1 1 1 1 2 2 2 2 1 1 1 2 2 2 2 1 1 1 2 4 4 3 3 3 3 3 3 4 3
1 1 1 2 2 2 2 2 2 2 2 2 2 2 2 2 2 2 1 2 2 2 2 2 1 1 2 4 3 4 3 3 3 3 3 3 4 4
1 1 2 2 2 2 2 2 2 2 2 2 2 2 2 2 2 2 2 3 3 2 2 2 2 2 3 4 3 3 4 4 3 3 3 3 4 5
1 2 2 2 2 2 2 2 2 2 2 2 2 2 2 2 2 2 2 3 3 3 3 3 4 4 3 2 3 3 2 4 4 3 2 2 3 3
1 2 2 2 2 2 1 1 1 2 2 2 2 2 2 2 3 3 3 3 3 3 4 3 3 2 2 3 4 4 3 3 3 4 4 4 3 3
2 2 2 2 2 2 2 2 2 2 2 2 2 2 3 3 3 3 3 3 3 3 3 3 2 2 3 3 4 3 4 4 3 3 3 4 6 6
Wind_Direction
210 211 219 225 210 203 191 190 196 240 269 263 259 246 240 237 239 233 236 242 242 246 243 235 230 230 229 228 227 227 225 224 225 226 229 232 231 233
214 220 233 234 222 205 202 205 203 214 248 255 249 256 247 246 233 232 239 243 242 243 237 228 224 226 227 226 223 219 220 221 223 225 229 232 231 234
230 227 240 228 219 216 208 207 209 209 235 261 254 257 243 246 249 238 243 241 245 242 236 230 228 228 227 225 223 220 219 220 223 226 231 233 232 235
234 230 241 227 222 227 218 218 217 215 221 248 261 256 246 242 243 241 249 243 242 242 236 237 235 232 229 226 224 223 222 223 225 228 232 235 236 237
232 230 236 217 229 235 226 226 223 219 216 229 253 255 262 272 262 262 258 263 256 245 240 239 236 235 233 229 225 223 225 225 226 227 232 236 236 237
245 236 235 221 225 231 230 228 215 209 212 223 244 262 267 274 229 251 286 284 275 275 260 244 236 235 234 233 232 229 229 229 229 229 231 233 235 237
266 255 246 237 228 222 229 219 205 202 201 213 232 259 269 255 248 243 250 277 269 255 265 263 250 250 246 239 238 235 233 232 232 232 231 232 234 235
254 271 269 251 244 222 227 209 196 195 195 197 213 223 235 237 238 229 233 261 277 261 246 274 262 263 266 261 249 237 235 237 237 235 235 234 234 234
234 245 264 285 262 263 245 210 215 216 200 194 205 219 221 219 210 216 219 232 249 261 239 272 278 278 280 277 262 244 237 237 239 241 241 240 240 240
240 228 232 269 263 204 159 73 309 274 235 219 218 225 225 216 207 211 221 244 269 268 229 259 281 280 287 279 262 250 250 247 247 251 251 248 246 244
267 254 236 240 247 152 138 121 5 324 317 233 220 233 225 207 181 158 170 231 281 275 219 239 268 288 287 277 268 251 251 251 252 253 255 255 254 250
299 299 261 242 236 172 159 157 215 289 318 341 335 302 249 217 190 196 200 214 253 258 216 221 240 263 280 272 285 282 269 264 259 256 255 255 252 248
257 277 280 279 251 215 187 199 225 231 245 260 285 290 303 278 243 234 222 216 227 243 220 204 227 236 251 281 291 289 280 278 269 263 253 255 250 235
238 261 272 278 251 217 210 225 205 191 189 194 287 290 284 288 284 263 244 241 242 247 238 213 225 231 247 272 280 286 288 281 270 268 276 268 254 244
239 264 276 260 213 206 213 202 171 164 173 204 261 275 273 276 285 284 259 262 276 271 249 236 239 235 231 246 268 277 289 288 268 277 280 270 265 254
290 329 343 345 71 242 298 204 172 208 211 239 272 284 296 301 281 278 280 297 304 313 304 273 250 230 234 243 247 269 276 274 287 291 286 274 261 247
154 14 7 356 341 310 321 318 247 209 232 246 258 276 290 295 299 296 264 268 264 292 308 322 308 275 248 239 248 258 270 282 284 283 279 278 272 261
115 109 290 280 266 262 268 281 265 248 248 249 262 271 276 281 289 290 264 249 265 277 283 295 317 323 301 267 232 249 264 273 281 275 271 272 279 274
112 229 247 256 262 262 261 257 259 264 258 254 259 267 271 271 267 262 258 263 271 274 279 280 272 265 282 292 275 223 251 272 275 276 270 265 273 281
251 261 265 260 259 256 256 264 268 271 266 262 263 265 269 266 262 261 255 258 268 275 282 277 256 250 254 270 280 279 246 256 263 270 274 273 276 279
261 268 275 275 266 260 255 259 264 264 266 263 262 262 263 265 263 258 254 255 258 263 267 269 267 257 259 256 265 277 277 250 252 259 267 271 284 282
264 264 272 277 276 260 250 258 272 282 285 276 267 261 262 264 267 264 255 253 254 257 266 276 283 254 236 249 267 280 289 298 272 263 261 252 264 271
271 272 278 283 287 284 262 252 262 274 276 276 277 275 267 267 270 263 256 255 258 264 272 281 284 271 265 261 266 276 284 295 302 303 296 284 267 275